Regional Weather Roundup
Issued by NWS Green Bay, WI

Home | Current Version | Previous Version | Text Only | Print | Product List | Glossary On
Versions: 1 2 3 4 5 6 7 8 9 10 11 12 13 14 15 16 17 18 19 20 21 22 23 24 25 26 27 28 29 30 31 32 33 34 35 36 37 38 39 40 41 42 43 44 45 46 47 48 49 50
000
ASUS43 KGRB 240811
RWRGRB

NORTH-CENTRAL AND NORTHEAST WISCONSIN REGIONAL WEATHER ROUNDUP
NATIONAL WEATHER SERVICE GREEN BAY WI
200 AM CST WED JAN 24 2018

WIZ005-009-010>012-018-019-240900-
NORTH CENTRAL WISCONSIN

CITY           SKY/WX    TMP DP  RH WIND       PRES   REMARKS
IRONWOOD       CLOUDY     3   0  87 CALM      30.17R
MANITOWISH WTR CLOUDY    -1  -3  89 CALM      30.13R
ARBOR VITAE    FAIR       5   2  88 CALM      30.12R
EAGLE RIVER    FAIR       6   3  86 CALM      30.11S
LAND O LAKES   FAIR       6   3  90 CALM      30.14R
RHINELANDER    FAIR       8   6  92 CALM      30.12S
PHILLIPS       FAIR       1  -1  90 CALM      30.14R
ANTIGO         FAIR       5   3  91 CALM      30.13F
TOMAHAWK       FAIR       4   1  88 CALM      30.14S
MERRILL        FAIR      11   9  90 CALM      30.15S
$$

WIZ013-073-240900-
NORTHEAST WISCONSIN

CITY           SKY/WX    TMP DP  RH WIND       PRES   REMARKS
IRON MOUNTAIN  FAIR       8   4  83 CALM      30.15R
MARINETTE      FAIR      11   7  84 NW6       30.21  WCI   1
OCONTO         FAIR      13   8  81 N3        30.21R
$$

WIZ017-030-035>037-045-240900-
CENTRAL WISCONSIN

CITY           SKY/WX    TMP DP  RH WIND       PRES   REMARKS
MEDFORD        FAIR      10   8  92 CALM      30.14R
WAUSAU         FAIR      17  11  77 N3        30.14S
MOSINEE        FAIR      16  14  93 N3        30.16R
MARSHFIELD     FAIR      15  11  83 N5        30.15R WCI   8
WISC RAPIDS    FAIR      16  11  80 CALM      30.18S
STEVENS POINT  FAIR      12  12  99 CALM      30.17R
WAUPACA        FAIR      19  14  81 N5        30.20R
SHAWANO        FAIR      14  10  82 CALM      30.20R
CLINTONVILLE   FAIR      16  10  79 N5        30.20R WCI   9
WAUTOMA        CLOUDY    22  19  89 NW3       30.19R
$$

WIZ038-039-048-051-240900-
FOX VALLEY

CITY           SKY/WX    TMP DP  RH WIND       PRES   REMARKS
NWS GREEN BAY  FAIR      17  11  77 N7        30.20R WCI   8
APPLETON       FAIR      18  10  73 N10       30.17R WCI   6
OSHKOSH        CLOUDY    21  14  74 N12       30.18R WCI   9
FOND DU LAC    CLOUDY    23  13  65 N10       30.18R
$$

WIZ022-050-052-240900-
EAST CENTRAL WISCONSIN

CITY           SKY/WX    TMP DP  RH WIND       PRES   REMARKS
EPHRAIM        PTSUNNY   13   9  82 NW7       30.16R WCI   3
WASHINGTON ISL CLOUDY    17  13  84 N10       30.16R WCI   5
STURGEON BAY   FAIR      14   9  80 NW10      30.20R WCI   1
MANITOWOC      FAIR      18  13  80 N12       30.19R WCI   5
SHEBOYGAN      CLOUDY    21  16  81 N7        30.17R
$$

LMZ563-521-522-541>543-240900-
LAKESHORE

STATION/POSITION TIME  TEMP    WIND        PRES    VSBY  WAVE
                       AIR SEA DIR/SP/G                  HT/PER
                 (UTC) (F)     (DEG/KT/KT) (MB)    (MI)  (FT/S)
SHEBOYGAN LKSHOR 0800   23     360/ 13/ 16 1022.9R
KEWAUNEE LKSHORE 0742   18     330/  7/ 12 1021.3R
NORTHPORT PIER   0740   17     310/  5/ 15 1021.7R
MENOMINEE LKSHOR 0736   13     300/  9/ 13 1022.0R
$$




USA.gov is the U.S. government's official web portal to all federal, state and local government web resources and services.